Home   Weather   Vienna   Past weeks

Flag for Austria Past Weather in Vienna, Vienna, Austria — Yesterday and Last 2 Weeks

Now
45 °F

Overcast.


Feels Like: 45 °F
Forecast: 48 / 60 °F
Wind: 2 mph from West

Location: Wien / Hohe Warte

Current Time: Feb 22, 2017 at 7:11:11 am

Latest Report: Feb 22, 2017 at 6:00 am


Visibility: 10 mi

Pressure: 29.96 "Hg

Humidity: 95%

Dew Point: 44 °F

Location of ViennaLocation

Past Weather in Vienna — Graph

°F

Vienna Temperature Yesterday

Maximum temperature yesterday: 52 °F (at 4:00 pm)
Minimum temperature yesterday: 45 °F (at 12:00 am)
Average temperature yesterday: 48 °F

High & Low Weather Summary for the Past Weeks

 TemperatureHumidityPressure
High52 °F (Feb 21, 4:00 pm)98% (Feb 17, 6:00 am)30.64 "Hg (Feb 17, 6:00 am)
Low26 °F (Feb 9, 6:00 am)44% (Feb 15, 4:00 pm)29.84 "Hg (Feb 21, 4:00 pm)
Average35 °F80%30.34 "Hg
* Reported Feb 7 5:00 am — Feb 22 5:00 am, Vienna, Weather by CustomWeather, © 2017

Note: Actual official high and low records may vary slightly from our data, if they occured in-between our weather recording intervals... More about our weather records

Advertising

Vienna Weather History for the Previous 24 Hours

Scroll right to see more
 ConditionsComfort  
Time TempWeatherWind HumidityBarometerVisibility
5:00 am
Wed, Feb 22
45 °FFog.3 mph91%29.97 "HgN/A
4:00 am44 °FQuite cool.3 mph90%29.97 "HgN/A
3:00 am44 °FQuite cool.5 mph90%29.98 "HgN/A
2:00 am43 °FQuite cool.3 mph89%30.00 "HgN/A
1:00 am44 °FPassing clouds.3 mph85%30.00 "Hg19 mi
12:00 am46 °FCool.2 mph80%29.99 "HgN/A
11:00 pm
Tue, Feb 21
48 °FCool.3 mph76%29.98 "HgN/A
10:00 pm49 °FPassing clouds.6 mph71%29.97 "Hg31 mi
9:00 pm49 °FPassing clouds.6 mph73%29.95 "Hg31 mi
8:00 pm50 °FPassing clouds.6 mph71%29.94 "Hg31 mi
7:00 pm51 °FPassing clouds.5 mph72%29.91 "Hg31 mi
6:00 pm50 °FPassing clouds.7 mph80%29.88 "Hg37 mi
5:00 pm51 °FPartly sunny.9 mph79%29.86 "Hg37 mi
4:00 pm52 °FOvercast.12 mph78%29.84 "Hg37 mi
3:00 pm51 °FOvercast.8 mph79%29.85 "Hg37 mi
2:00 pm50 °FLight rain. Overcast.8 mph80%29.85 "Hg22 mi
1:00 pm50 °FLight rain. Overcast.6 mph83%29.85 "Hg19 mi
12:00 pm50 °FOvercast.7 mph87%29.86 "Hg11 mi
11:00 am48 °FLight rain. Overcast.6 mph90%29.88 "Hg9 mi
10:00 am48 °FOvercast.5 mph89%29.88 "Hg9 mi
9:00 am47 °FLight rain. Overcast.8 mph87%29.88 "Hg11 mi
8:00 am47 °FLight rain. Overcast.9 mph87%29.90 "Hg19 mi
7:00 am47 °FOvercast.12 mph80%29.88 "Hg28 mi
Weather by CustomWeather, © 2017

See weather overviewHow to use our weather pages